STARLINK-4425, 53208

Orbit data source: Space-Track

STARLINK-4425, 53208 is a payload satellite owned by SpaceX/Seattle (US) in SSO that was launched on Fri, 22 Jul 2022 UTC via an FALCON 9 launch vehicle from the Air Force Western Test Range (AFWTR). Payload-class satellites include a variety of spacecraft equipped with specific instruments for various scientific and technological missions. These include communications satellites like Starlink; space stations such as the ISS; scientific satellites like the Hubble; Earth observation satellites from companies like Planet Labs, Umbra, and HawkEye 360; GPS; miniature CubeSats for education and research; and military/defense satellites.

Loading next visibility...
Identifier
53208, 2022-084V
Orbit
SSO
Country
Flag of USUS
Related business
Manufacturer
SpaceX/Seattle
Mission
Operational Commercial Communications
Bus & Motor
STARLINK, Unknown motor
Mass
297 kg wet, ~275 kg dry
Launch date (UTC)
2022-07-22 (4 years ago)
Launch vehicle
FALCON 9
Launch site
Air Force Western Test Range (AFWTR)
Object type
Payload
Rocket body
Debris
Shape & HBR
Box + 1 Pan, 10.1 m
Radar Cross Section
13.562 m², Large (>1 m²)

Expand to show TLE details & history
Last TLE update: 3 days ago

TLE from 3 days ago
0 STARLINK-4425
1 53208U 22084V   26170.69412874  .00000567  00000-0  43247-4 0  9993
2 53208  97.3415 229.5659 0001068  91.9316 268.2034 15.05649599214657
Epoch: 2026-06-19T16:39Z
TLE epoch observation values (Epoch: 2026-06-19T16:39:32.723Z)
Latitude
0.00001°
Longitude
71.76012°
Altitude
552.608 km
Speed
7.585 km/s
True Right ascension
15h 18m 15s
True Declination
0° 00' 00"
Sunlit
Object was in full shadow at epoch
Visualization orbit readout
Latitude
Unknown
Longitude
Unknown
Altitude
Unknown
Speed
Unknown
Apparent Right ascension
Unknown
Apparent Declination
Unknown
Sunlit
N/A
Visualization observer readout
Local Sidereal Time
21:27:41
Azimuth
Unknown
Elevation
Unknown
Doppler factor
Unknown
Orbital elements
Apogee altitude
547.234 km
Perigee altitude
545.755 km
Semi-major axis
6,924.632 km
Eccentricity
0.00011
Inclination
97.3415°
RAAN
229.5659°
Arg. of periapsis
91.9316°
True anomaly
268.19117°
Mean anomaly
268.2034°
Eccentric anomaly
268.19728°
Mean motion
3.76659 °/min
Orbital period
95.58 mins
BSTAR
0.000043247
Loading maneuver chart data...
Computing Atmospheric mass density...
Loading historical data...
Loading historical data...
Loading historical data...
Loading historical data...
Loading historical data...
Loading historical data...
Loading historical data...

Documentation

Showing up to 5 results
|